This demonstration page uses our WeatherBlox Daily Observations layout. Learn more.

Left ArrowRight Arrow

34.02893, -84.19858

Hourly Observations for June 2, 2022

Temp ( °F °C ) Dew Point ( °F °C ) Humidity (%) Winds ( mph kmh ) Pressure ( in mb ) Visibility ( mi km ) Precip ( " mm )
12:53 am 00:53 Clear 72 22.2 67 19.4 84 84 Calm 29.91 1013 10 16 0.00 0.00
1:53 am 01:53 Mostly Cloudy 71 21.7 67 19.4 87 87 Calm 29.90 1013 10 16 0.00 0.00
2:53 am 02:53 Clear 70 21.1 67 19.4 90 90 Calm 29.88 1012 10 16 0.00 0.00
3:53 am 03:53 Mostly Cloudy 71 21.7 67 19.4 87 87 Calm 29.88 1012 10 16 0.00 0.00
4:53 am 04:53 Mostly Clear 69 20.6 66 18.9 90 90 Calm 29.87 1012 10 16 0.00 0.00
5:53 am 05:53 Clear 68 20 66 18.9 93 93 Calm 29.87 1012 9 14 0.00 0.00
6:53 am 06:53 Sunny 68 20 66 18.9 93 93 Calm 29.88 1012 8 13 0.00 0.00
7:53 am 07:53 Sunny 72 22.2 68 20 87 87 ESE 3 6 29.87 1012 10 16 0.00 0.00
8:53 am 08:53 Sunny 80 26.7 68 20 67 67 W 5 7 29.88 1012 10 16 0.00 0.00
9:53 am 09:53 Sunny 82 27.8 68 20 63 63 Calm 29.88 1012 10 16 0.00 0.00
10:53 am 10:53 Sunny 85 29.4 69 20.6 59 59 VRB 6 9 29.88 1012 10 16 0.00 0.00
11:53 am 11:53 Mostly Sunny 87 30.6 67 19.4 51 51 WNW 10 17 29.88 1012 10 16 0.00 0.00
12:53 pm 12:53 Mostly Sunny 88 31.1 67 19.4 50 50 SW 6 9 29.86 1011 10 16 0.00 0.00
1:53 pm 13:53 Sunny 89 31.7 66 18.9 47 47 WSW 5 7 29.83 1010 10 16 0.00 0.00
2:53 pm 14:53 Partly Cloudy 89 31.7 66 18.9 47 47 undefined N/A 29.81 1009 10 16 0.00 0.00
3:53 pm 15:53 Mostly Sunny 88 31.1 65 18.3 46 46 undefined N/A 29.79 1009 10 16 0.00 0.00
4:53 pm 16:53 Partly Cloudy 89 31.7 64 17.8 43 43 W 8 13 29.78 1008 10 16 0.00 0.00
5:53 pm 17:53 Mostly Cloudy with Nearby Thunderstorms 83 28.3 65 18.3 55 55 WNW 12 19 29.81 1010 10 16 0.00 0.00
6:13 pm 18:13 Partly Cloudy 82 27.8 65 18.3 56 56 NW 14 22 29.81 1009 10 16 0.00 0.00
6:20 pm 18:20 Partly Cloudy with Nearby Thunderstorms 80 26.7 64 17.8 58 58 NW 14 22 29.81 1010 10 16 0.00 0.00
6:35 pm 18:35 Partly Cloudy 78 25.6 64 17.8 62 62 NW 13 20 29.81 1010 10 16 0.00 0.00
6:53 pm 18:53 Mostly Sunny 75 23.9 65 18.3 71 71 NW 8 13 29.80 1009 10 16 0.00 0.00
7:53 pm 19:53 Sunny 75 23.9 65 18.3 71 71 NW 9 15 29.83 1010 10 16 0.00 0.00
8:53 pm 20:53 Clear 74 23.3 66 18.9 76 76 WNW 3 6 29.85 1011 10 16 0.00 0.00
9:53 pm 21:53 Clear 73 22.8 66 18.9 79 79 NW 6 9 29.84 1011 10 16 0.00 0.00
10:53 pm 22:53 Clear 72 22.2 67 19.4 84 84 Calm 29.83 1010 10 16 0.00 0.00
11:53 pm 23:53 Clear 71 21.7 66 18.9 84 84 W 3 6 29.84 1010 10 16 0.00 0.00

Powered by AerisWeather